Lid_Strength_Index
-2 -2 -1 -0 -1 -1 -1 -1 -1 -1 -1 -1 -1 -0 -1 -1 -1 0 3 1 0 -1 -1 0 1 2 2 4 3 3 9 11 10 9 8 6 8 6 6 7 5 4 4 3 2
-2 -2 -2 -1 -1 -1 -1 -1 -1 -1 -1 -1 -1 -1 -1 -1 1 3 -1 -1 -1 -2 1 2 3 3 4 5 5 6 9 9 6 6 7 6 6 6 7 7 7 5 3 2 2
-1 -1 -1 -2 -1 -1 -2 -1 -1 -1 -1 -1 -1 -1 -1 -1 3 3 -3 -2 -2 -1 0 1 2 3 5 4 5 6 9 7 6 5 5 6 6 5 6 7 6 6 5 3 3
-1 -1 -1 -1 -1 -1 -2 -1 -1 -1 -1 -1 -1 -1 -1 0 10 1 -1 -1 -2 -1 1 2 3 6 7 7 5 8 6 6 6 5 6 6 5 6 5 5 3 3 4 4 3
-1 -1 -1 -1 -1 -1 -1 -2 -1 -1 -1 -1 -1 -1 0 4 5 -1 -2 -1 -1 0 2 4 5 5 8 6 6 8 6 5 5 5 5 5 6 6 6 4 3 3 4 5 5
-1 -1 -1 -1 -1 -1 -1 -1 -1 -1 -1 -1 -1 -1 2 7 1 -1 -1 -0 0 1 2 3 4 4 6 6 7 6 6 6 5 6 5 7 6 6 5 4 4 4 4 5 4
-1 -1 -1 -1 -1 -1 -1 -1 -1 -1 -1 -1 -1 0 4 5 -0 -1 -0 1 0 1 3 2 2 4 5 7 5 6 9 7 7 6 7 6 8 8 4 4 5 5 4 4 4
-1 -1 -1 -1 -1 -1 -1 -1 -1 -1 -1 -1 -1 1 6 1 -1 0 -0 1 0 0 1 1 1 4 5 5 7 9 8 12 7 6 6 7 10 6 4 4 5 5 4 4 4
-1 -1 -1 -1 -1 -1 -1 -1 -1 -2 -2 -1 1 2 7 1 2 0 0 2 1 1 1 1 2 5 6 9 11 10 13 12 10 6 7 8 10 6 4 5 5 5 4 4 4
-1 -1 -1 -1 -1 -1 -1 -1 -1 -1 -1 0 1 5 5 6 3 1 -0 1 3 4 4 5 6 9 9 11 16 13 13 11 11 8 8 9 9 7 5 5 6 5 4 4 4
-1 -1 -1 -1 -1 -1 -0 1 4 5 4 6 6 6 5 3 2 2 1 3 3 5 9 7 11 13 10 9 9 9 10 11 9 7 9 9 9 7 6 6 6 5 5 4 4
-1 -1 -1 -1 -1 -1 0 5 5 4 8 4 4 4 3 2 6 4 1 6 7 10 8 10 13 8 7 8 9 10 11 11 9 8 9 9 10 7 6 6 6 5 5 5 4
-1 -1 -1 -1 -1 0 2 4 2 3 9 7 4 4 4 3 6 6 4 5 8 10 10 11 9 7 8 9 11 11 12 11 11 9 8 9 11 9 7 6 5 5 4 4 4
-1 -1 -1 -1 1 1 3 2 2 2 12 11 8 5 4 4 7 3 3 5 8 10 9 10 7 9 10 11 10 13 8 9 10 12 15 9 16 10 8 8 6 5 5 4 4
-1 -1 -1 -1 1 4 2 1 2 5 19 9 8 3 4 7 6 6 2 5 8 9 9 11 10 10 11 11 9 11 8 9 10 12 12 12 15 12 8 9 7 6 5 4 3
-1 -1 -1 0 1 0 1 2 5 14 19 12 8 8 8 7 7 6 6 4 4 8 8 8 6 8 8 7 8 7 9 10 11 13 19 13 14 13 10 8 7 6 5 4 4
-1 -1 1 -0 4 -0 1 6 14 17 11 13 11 9 9 10 9 9 10 10 11 14 14 10 10 7 7 10 8 9 12 18 20 20 19 11 14 12 8 7 7 6 5 4 4
-1 -1 1 0 -1 1 3 11 17 13 13 9 9 10 11 9 10 10 11 12 9 9 11 14 15 10 8 9 11 11 12 17 20 20 17 12 16 12 7 6 5 5 5 4 4
-1 1 2 1 -0 1 7 15 15 12 9 10 10 13 12 10 10 10 11 12 9 8 12 13 13 8 7 7 8 12 15 10 15 15 18 14 11 8 7 7 6 6 5 5 5
2 3 4 2 1 3 10 13 12 8 9 9 13 12 15 13 12 12 11 8 10 7 7 10 14 9 8 7 8 10 9 16 16 20 21 15 14 13 9 8 6 6 6 6 5
2 7 2 0 2 8 13 12 10 7 7 10 11 12 11 13 11 12 11 8 7 8 7 9 11 13 10 12 12 11 13 12 13 15 18 18 14 8 8 7 7 6 6 6 6
4 10 1 1 9 10 12 10 8 9 7 8 9 10 11 11 12 11 11 9 6 7 11 9 12 15 13 9 8 9 11 11 15 16 15 15 15 7 7 6 6 6 6 5 4
7 6 1 3 12 12 10 10 8 9 9 9 10 8 8 10 13 10 9 6 6 7 9 9 13 17 16 12 10 12 11 10 11 12 16 17 14 7 6 6 6 6 5 5 4
6 10 7 6 7 10 11 11 11 7 8 7 8 8 9 10 9 11 10 7 6 7 7 7 11 14 16 14 11 14 12 10 12 16 15 15 13 9 7 7 6 6 5 5 5
7 9 8 11 10 9 9 10 11 12 7 7 9 9 10 12 11 11 9 8 7 7 7 8 14 12 11 10 11 12 14 13 13 13 15 13 12 9 8 7 6 6 5 5 5
8 9 7 9 8 10 10 11 11 10 10 10 10 9 9 11 10 11 9 9 10 8 9 8 14 13 14 11 11 14 12 12 12 13 13 12 12 8 6 6 6 6 5 6 5
4 3 6 8 9 10 11 10 10 8 8 7 8 8 9 9 7 6 6 7 7 9 10 11 13 15 16 12 13 16 13 11 11 10 11 14 11 7 7 7 6 6 6 6 7